Temperature
17 17 18 18 15 12 14 15 15 16 15 15 15 14 13 12 13 13 11 11 12 12 12 12 12 12 13 13 13 13 13 13 13 13 13 14 14 14 14 14 14 14 14 14 14 14 14 14 14
17 17 18 17 13 13 14 14 15 15 15 15 15 13 12 11 11 11 11 11 12 12 12 12 12 12 13 13 13 13 13 13 13 13 13 13 13 13 14 14 14 14 14 14 14 14 14 14 14
17 17 17 12 12 13 15 15 14 15 16 15 13 12 11 11 11 11 11 11 11 12 12 12 12 12 12 12 13 13 13 13 13 13 13 13 13 13 13 13 13 13 13 13 14 14 14 14 14
17 17 16 12 13 13 14 14 14 15 15 15 13 11 11 11 11 11 11 11 11 11 11 12 12 12 12 12 12 12 12 12 12 12 12 13 13 13 13 13 13 13 13 13 13 13 13 13 13
16 16 12 12 13 13 13 14 15 14 14 14 12 10 10 10 11 11 11 11 11 11 11 11 12 12 12 12 12 12 12 12 12 12 12 12 13 13 13 13 13 13 13 13 13 13 13 13 13
16 13 11 12 13 13 13 14 14 13 13 13 12 10 9 10 10 11 11 11 11 11 11 11 11 11 12 12 12 12 12 12 12 12 12 12 12 12 12 12 12 12 12 12 12 12 12 12 12
14 11 12 12 12 13 14 15 14 12 12 12 12 10 9 10 10 10 10 10 11 11 11 11 11 11 11 11 11 11 11 11 11 12 12 12 12 12 12 12 12 12 12 12 12 12 12 12 12
15 11 12 12 12 13 14 14 13 13 12 12 12 10 9 10 10 10 10 10 10 10 10 10 10 11 11 11 11 11 11 11 11 11 11 11 11 11 11 11 11 11 11 11 11 11 12 12 12
14 10 11 12 12 12 13 13 12 12 12 11 11 11 11 10 10 10 10 10 10 10 10 10 10 10 10 11 11 11 11 11 11 11 11 11 11 11 11 11 11 11 11 11 11 11 11 11 11
13 10 11 12 12 12 12 12 12 11 10 10 10 10 10 10 10 10 10 10 10 10 9 9 10 10 10 10 10 10 10 10 10 10 10 10 10 10 10 10 10 10 10 10 10 10 11 11 11
11 10 11 12 12 12 12 11 11 11 9 10 10 10 10 9 9 9 9 9 9 9 9 9 9 9 9 9 9 10 10 10 10 10 10 10 10 10 10 10 10 10 10 10 10 10 10 10 10
11 11 12 12 12 12 11 11 10 10 10 11 11 10 10 9 9 9 9 9 9 9 9 9 9 9 9 9 9 9 9 9 9 9 9 9 9 9 9 9 9 9 9 9 9 9 9 9 9
10 10 11 11 12 11 11 10 9 9 10 10 10 10 9 9 9 9 9 8 8 8 8 8 9 9 9 8 8 8 8 9 9 8 8 8 8 9 8 8 9 9 9 9 9 9 9 9 9
10 10 10 11 11 10 9 9 9 9 10 10 9 9 9 9 8 8 8 8 8 8 8 8 8 8 8 8 8 8 8 8 8 8 8 8 8 8 8 8 8 8 8 8 8 8 8 8 8
10 9 9 10 10 10 10 8 8 9 9 9 9 9 8 8 8 8 8 8 8 8 8 8 8 7 7 8 7 7 8 7 7 7 7 7 7 7 7 7 7 7 7 7 7 7 7 8 8
9 8 8 9 9 9 9 8 8 9 9 8 8 8 8 8 8 8 8 7 7 7 7 7 7 7 7 7 7 7 7 7 7 7 7 7 7 7 7 7 7 7 7 7 7 7 7 7 7
8 7 8 8 9 9 8 7 7 8 8 7 7 7 7 7 7 7 7 7 7 7 7 7 7 7 7 6 6 6 6 6 6 6 6 6 6 6 6 6 6 6 6 6 6 6 6 6 6
7 7 8 8 8 8 7 6 7 8 7 7 7 7 7 7 7 7 7 7 7 7 6 6 6 6 6 6 6 6 6 6 6 6 6 6 6 6 5 5 5 5 5 6 5 5 6 5 5
8 8 7 8 8 7 6 6 6 7 6 6 6 6 6 6 6 6 6 6 6 6 6 6 6 6 6 5 5 5 5 5 5 5 5 5 5 5 5 5 5 5 5 5 5 5 5 5 5
8 8 7 7 8 7 6 6 6 6 6 6 6 5 6 6 6 6 6 6 6 6 6 6 5 5 5 5 5 5 5 5 5 5 4 4 4 4 4 4 4 4 4 4 4 4 4 4 4
7 7 7 7 7 6 6 5 5 5 6 6 6 6 5 5 5 5 5 5 5 5 5 5 5 5 4 4 4 4 4 4 4 4 4 4 4 4 4 4 4 4 4 4 3 3 3 3 3
7 7 7 7 5 4 5 4 4 5 4 5 5 5 5 5 5 5 5 5 5 5 5 5 4 4 4 4 4 4 4 4 4 3 3 3 3 3 3 3 3 3 3 3 3 3 3 3 3
6 7 6 6 5 4 4 4 4 4 4 4 4 5 5 5 5 5 5 5 5 4 4 4 4 4 3 3 3 3 3 3 3 3 3 3 3 3 3 3 2 3 3 3 2 2 2 2 2
6 5 5 3 3 4 4 3 4 3 4 4 4 5 5 5 5 4 4 4 4 4 4 3 3 3 3 3 3 3 3 3 3 3 2 2 2 2 2 2 2 2 2 2 2 2 2 1 1
5 4 4 4 3 3 3 3 4 4 4 4 4 4 5 4 4 4 3 3 3 3 3 3 3 3 3 3 2 2 2 2 2 2 2 2 2 2 1 1 1 1 1 1 1 1 1 1 1
4 4 4 4 3 3 3 3 4 4 4 4 4 4 4 4 4 3 3 3 3 3 3 3 2 2 2 2 2 2 2 2 2 1 1 1 1 1 1 1 1 1 1 1 1 1 1 1 1
4 3 4 3 2 2 3 2 3 3 3 3 3 3 3 4 3 3 3 3 3 2 2 2 2 2 2 2 2 1 1 1 1 1 1 1 1 1 0 0 0 0 0 0 0 0 0 0 0
4 3 2 2 3 3 3 3 3 3 3 3 2 3 3 3 3 3 2 2 2 2 2 2 2 1 1 1 1 1 1 1 1 1 1 0 0 0 -0 -0 -0 -1 -0 -0 -0 -0 -0 -0 -0
3 3 2 1 2 2 2 4 3 3 2 2 2 2 3 3 2 2 2 2 2 1 1 1 1 1 1 1 1 1 0 0 -0 -0 0 -0 -0 -0 -0 -1 -1 -1 -1 -1 -1 -1 -1 -1 -1
3 3 2 2 2 1 1 3 3 2 2 2 2 2 2 2 2 2 1 1 1 1 1 1 0 0 0 0 0 0 -0 -0 -1 -1 -0 -0 -1 -1 -1 -1 -1 -1 -1 -1 -1 -1 -1 -1 -1
Wind_Speed
11 8 2 4 5 5 1 3 1 1 2 2 4 8 9 6 4 5 2 1 4 4 5 6 7 8 9 9 9 9 10 10 10 11 11 11 11 11 12 11 11 11 11 11 12 12 12 12 12
7 3 5 5 5 2 3 3 1 1 3 4 6 6 7 6 4 5 1 2 5 6 6 5 7 9 9 9 9 9 8 9 9 10 11 11 11 11 11 11 11 11 11 11 11 11 11 11 11
5 2 4 5 4 5 4 3 4 2 3 3 5 6 5 4 3 3 2 4 6 7 7 6 7 8 9 9 9 9 8 7 8 9 10 10 11 11 10 10 10 10 10 10 10 11 11 11 10
3 5 5 5 3 3 4 3 2 3 4 5 5 5 4 3 2 3 4 6 6 6 7 7 8 8 9 9 9 9 8 7 7 8 9 9 10 11 10 9 9 9 9 10 10 10 10 10 9
4 4 4 1 2 2 2 2 2 2 2 3 4 5 3 4 4 6 6 7 6 6 7 8 8 8 9 9 9 9 10 9 8 9 8 9 9 9 9 9 9 8 8 9 9 9 9 8 8
4 4 4 3 3 2 1 1 2 3 2 3 5 5 2 1 4 5 6 6 7 6 7 8 9 9 9 9 9 10 10 9 9 9 9 8 8 8 9 9 9 8 7 8 8 8 8 8 8
4 4 4 5 4 2 2 1 3 4 3 2 4 6 3 0 3 5 6 6 7 7 7 8 8 8 8 9 9 10 10 10 9 9 9 9 8 8 9 9 9 8 7 7 7 7 8 8 8
5 4 3 3 4 3 1 2 2 3 3 2 4 7 4 4 4 6 6 6 6 6 6 6 7 8 8 8 8 9 10 10 10 9 9 9 9 8 8 9 9 9 8 6 6 7 7 7 7
4 4 3 4 5 3 0 3 3 3 5 4 3 3 4 7 6 7 5 5 4 4 4 6 6 7 7 7 7 9 9 9 9 9 9 9 8 8 8 8 8 8 8 7 6 6 6 7 7
4 4 5 3 3 3 1 3 3 3 4 3 4 4 6 7 7 6 5 4 3 2 2 4 5 6 7 6 7 8 8 8 9 9 9 8 8 8 7 8 8 8 8 8 7 7 6 6 6
4 5 3 1 1 3 3 2 2 5 2 4 6 7 7 6 5 5 4 3 3 2 2 2 4 6 6 6 6 6 7 7 8 8 8 8 8 8 8 7 7 7 7 8 7 7 6 6 6
3 1 1 0 1 2 2 2 2 2 3 4 7 9 8 7 6 5 4 2 2 2 2 2 4 5 6 6 5 6 6 6 6 7 8 7 6 6 6 6 6 7 6 7 7 6 6 6 6
2 1 2 2 4 4 4 3 3 1 2 4 7 7 7 6 4 3 3 3 3 2 2 2 3 4 5 5 4 5 5 5 5 6 7 6 5 4 5 5 6 6 6 5 5 5 5 5 5
2 2 2 2 2 1 3 0 2 3 3 5 6 6 6 6 5 4 3 3 3 3 2 1 2 4 4 4 4 4 4 4 5 6 6 6 5 4 4 4 5 5 6 5 4 4 3 3 4
3 3 3 1 1 1 4 2 3 4 4 5 5 5 5 4 4 4 4 4 3 3 2 2 2 4 4 3 3 4 4 4 4 5 6 6 5 4 4 3 4 5 6 6 5 4 4 3 3
3 3 0 3 1 2 5 5 5 4 5 4 4 4 4 3 3 3 3 3 3 3 2 2 2 3 3 3 3 3 4 4 4 5 5 5 6 5 4 3 3 5 5 5 3 2 3 3 2
2 1 3 3 2 1 3 5 4 3 5 5 5 4 4 2 1 2 2 3 3 3 2 2 2 2 2 2 3 3 3 4 4 4 5 5 5 5 4 4 4 5 4 4 3 3 2 2 2
4 3 3 4 3 2 3 6 5 4 5 5 5 4 4 4 3 2 2 2 3 2 2 2 2 2 2 2 2 2 3 3 3 4 4 5 5 5 4 4 5 5 3 3 2 2 2 1 2
4 3 3 4 3 2 5 7 7 5 4 5 5 5 5 5 3 1 2 2 2 2 2 2 2 1 1 1 1 1 1 1 1 3 4 5 5 4 4 3 4 4 2 2 2 2 2 2 2
2 2 2 3 1 1 3 6 6 5 6 7 8 7 6 3 1 1 1 1 2 2 2 2 2 1 1 1 1 1 0 0 1 2 3 4 4 4 3 3 2 2 1 2 2 2 1 2 2
2 4 4 3 2 2 2 5 4 4 3 4 5 5 5 5 4 3 2 2 1 2 2 2 1 1 1 1 1 2 2 1 1 2 1 4 4 4 3 2 2 2 1 1 2 1 1 1 2
4 3 3 2 1 3 1 4 6 4 4 4 5 5 5 4 4 4 2 2 2 2 1 2 1 1 1 1 2 2 1 0 1 1 1 2 3 3 3 2 2 2 1 1 1 1 1 0 1
3 0 1 1 2 1 1 3 7 2 5 7 6 5 4 4 5 5 4 3 2 1 1 1 2 1 1 1 1 2 1 1 0 0 0 1 2 3 3 2 2 2 1 1 1 2 1 1 1
2 4 5 5 4 2 5 5 7 5 7 5 4 4 4 4 4 4 3 2 1 0 1 1 2 1 1 1 1 2 2 1 0 0 1 1 1 2 3 3 2 2 2 2 2 2 2 2 1
4 5 4 4 2 6 3 4 8 6 5 5 5 4 3 3 4 3 3 2 2 1 1 1 1 0 0 0 0 1 3 2 2 2 2 2 1 2 2 2 2 2 2 2 2 1 2 2 2
2 5 6 4 5 5 2 6 7 4 3 2 2 2 2 2 3 4 4 4 3 2 2 2 1 1 1 1 1 0 1 1 2 2 2 2 2 3 2 2 3 3 3 3 2 1 2 2 2
4 3 4 4 1 3 6 6 7 3 3 2 2 1 1 1 2 3 3 3 3 3 3 3 2 1 1 1 1 1 1 1 1 2 2 2 2 2 2 2 2 3 3 2 2 2 2 2 2
3 5 5 4 3 4 6 5 5 5 4 3 2 2 2 2 2 2 2 2 3 3 2 2 2 2 2 2 2 1 2 2 2 2 2 2 2 1 2 2 2 2 3 2 2 2 2 2 3
2 3 4 4 4 4 4 7 4 4 3 3 4 3 3 3 2 2 2 2 2 1 2 2 2 2 1 1 1 1 1 1 1 1 2 2 2 1 2 2 2 2 2 2 2 3 3 3 3
3 5 6 4 4 4 4 7 4 2 1 1 3 3 2 2 2 2 1 1 1 1 1 2 2 1 2 2 1 1 1 1 1 2 2 2 2 2 2 2 2 3 3 3 3 3 3 3 4
Wind_Direction
334 340 59 58 60 58 223 268 218 49 57 54 66 84 93 83 91 132 159 65 78 67 54 47 49 54 54 54 57 60 60 58 58 56 55 55 55 55 57 61 64 65 64 63 62 61 61 59 56
337 357 55 62 94 120 262 264 175 183 157 130 73 74 77 78 71 102 108 60 80 74 59 48 54 54 51 50 52 56 61 62 61 58 56 54 53 55 58 61 62 63 64 63 62 59 59 57 55
336 49 79 79 119 173 202 214 178 125 73 101 78 54 79 91 91 116 131 96 76 66 58 51 61 58 53 50 49 50 56 62 64 62 58 55 52 54 56 58 59 60 60 62 62 60 58 54 50
48 50 60 85 164 223 201 204 171 112 53 55 99 74 63 29 114 126 113 95 86 64 61 57 64 60 55 51 49 47 47 59 70 67 61 58 55 54 56 55 56 57 57 57 59 59 57 51 49
61 80 80 92 216 252 231 186 137 101 92 65 96 100 79 359 82 104 99 89 96 72 62 60 64 60 55 51 48 47 48 61 69 67 60 57 55 54 57 55 55 54 55 54 53 52 54 52 48
59 73 111 185 207 228 257 179 129 93 93 76 96 106 118 15 90 100 99 96 93 83 66 61 61 57 53 51 50 49 51 58 62 60 57 54 53 54 55 53 52 52 51 50 49 48 49 48 45
106 107 158 173 181 224 232 128 119 122 99 92 122 116 137 189 123 112 103 94 85 78 66 54 54 54 51 50 50 49 51 54 55 53 51 51 50 54 56 52 50 45 45 46 46 47 44 42 39
123 113 142 177 177 217 229 72 68 106 118 64 100 132 165 199 144 109 93 81 78 68 60 52 46 44 42 48 51 49 51 51 48 46 43 44 46 46 51 49 49 44 40 39 42 42 40 38 35
94 92 177 197 181 204 154 86 41 46 84 52 51 115 149 140 126 110 91 68 66 65 53 49 47 41 40 47 49 52 50 48 47 44 42 41 39 39 42 44 45 42 36 32 36 36 38 37 34
91 150 203 214 177 164 110 101 124 78 75 67 50 59 108 123 124 126 126 121 97 71 52 44 48 43 41 44 43 48 47 46 44 40 40 40 42 42 40 39 38 37 32 26 27 32 35 36 34
129 169 194 275 147 126 106 87 92 124 140 176 166 156 143 137 136 139 144 144 147 131 79 55 50 50 49 45 45 46 45 43 42 40 39 40 44 43 38 37 31 31 27 24 19 28 33 39 38
127 150 159 83 54 82 115 119 81 125 201 188 166 158 151 153 162 161 158 159 140 111 86 74 59 56 53 51 48 48 44 41 39 38 41 43 39 35 30 30 23 23 20 16 17 22 31 37 39
121 142 34 66 64 82 91 101 124 202 183 128 135 143 154 160 164 163 160 151 133 124 102 84 67 60 53 52 49 47 41 40 39 40 41 43 42 33 26 21 20 18 18 13 9 16 32 38 34
142 107 64 54 67 64 114 85 109 217 150 120 136 157 165 167 169 162 157 155 152 149 136 109 84 61 58 50 44 44 42 41 43 40 39 44 46 36 29 21 16 13 13 11 11 23 30 42 41
84 71 15 340 119 160 112 345 226 205 154 144 157 168 170 175 171 175 178 172 174 163 142 125 106 66 63 59 48 46 45 48 41 37 38 44 48 43 35 30 17 7 13 16 20 29 33 36 33
61 76 325 282 156 163 141 238 241 193 158 174 180 183 184 197 189 184 169 160 160 151 143 132 92 81 70 66 62 52 48 50 41 40 38 40 47 46 40 31 14 9 17 18 19 21 15 14 15
51 174 224 274 234 154 169 232 244 207 176 190 195 191 183 182 187 179 160 155 155 157 151 134 129 120 93 67 63 56 56 54 44 41 37 36 42 43 40 29 15 18 19 19 11 3 8 11 7
208 211 219 233 246 166 212 243 248 233 201 199 199 197 191 196 214 194 158 145 145 145 143 131 126 121 96 67 63 53 48 40 39 36 35 38 36 38 38 31 20 21 21 14 7 359 7 15 360
182 192 231 248 242 201 229 249 248 241 221 216 211 207 210 220 226 185 154 145 133 127 126 123 114 137 115 93 93 69 5 346 6 24 35 36 32 31 33 31 25 24 18 358 2 4 11 13 10
207 222 252 292 310 226 260 268 252 229 220 215 211 211 214 226 249 237 208 170 165 166 163 144 144 166 166 172 183 160 156 248 351 18 25 29 27 23 27 36 31 21 13 10 8 18 6 348 6
241 207 222 244 340 4 347 301 264 253 229 226 216 207 208 203 203 212 225 231 193 178 184 152 152 146 163 111 88 73 55 35 15 359 354 5 16 16 22 34 29 20 21 332 331 359 11 318 331
246 235 203 185 109 272 159 277 269 254 264 250 231 218 218 213 203 203 206 228 210 201 171 123 125 122 105 113 141 143 148 213 284 285 294 346 3 6 14 18 16 9 5 303 292 334 320 276 293
207 286 129 148 146 306 229 217 279 264 254 255 242 231 228 216 200 201 203 208 212 192 151 126 113 125 133 127 158 155 168 208 240 350 303 320 343 346 351 354 355 348 335 303 296 308 293 279 276
117 51 46 49 73 274 223 194 270 239 231 250 246 236 228 219 202 199 197 179 171 146 107 110 123 112 146 140 157 161 164 188 137 335 285 298 298 311 325 337 337 329 320 293 279 274 276 268 292
79 86 32 356 344 253 237 209 249 248 243 231 234 240 228 213 198 194 192 192 195 196 165 133 151 170 236 111 256 195 184 186 198 223 237 252 271 277 276 316 308 308 306 300 294 267 277 260 265
176 145 160 204 233 276 284 237 254 264 289 287 261 237 219 206 205 207 204 200 201 209 195 179 185 211 223 215 276 236 194 195 219 230 242 247 251 252 267 297 301 303 306 309 296 269 269 266 262
145 176 165 143 190 271 266 279 297 284 321 336 349 6 271 235 230 224 217 207 205 207 209 201 197 206 221 219 248 260 227 227 234 238 239 248 258 273 279 291 293 306 306 299 290 274 275 271 255
147 148 113 136 181 254 279 267 254 265 277 281 282 282 280 273 273 259 241 229 222 215 212 205 202 207 219 221 229 270 265 250 240 244 249 261 272 288 266 273 283 292 297 292 277 276 277 274 265
145 150 146 151 176 189 257 267 236 230 249 262 272 279 262 260 254 259 259 254 236 219 198 204 209 209 217 226 245 252 270 269 260 256 257 267 270 270 269 271 272 272 272 281 274 274 277 272 273
198 189 159 172 227 205 217 265 283 230 278 288 296 297 284 279 278 270 262 257 243 236 233 230 233 226 239 232 240 261 272 272 264 270 276 280 274 262 260 264 265 269 267 260 259 271 278 271 268
Height
1512 1513 1514 1516 1520 1532 1534 1528 1523 1522 1522 1522 1521 1521 1525 1530 1534 1541 1540 1538 1538 1538 1539 1538 1538 1538 1537 1537 1536 1536 1535 1535 1535 1535 1534 1534 1533 1532 1532 1531 1531 1531 1532 1531 1531 1531 1531 1530 1530
1512 1513 1515 1516 1527 1539 1535 1527 1524 1521 1521 1522 1522 1524 1527 1532 1534 1536 1537 1538 1538 1538 1538 1538 1538 1537 1537 1537 1536 1536 1535 1535 1534 1534 1534 1534 1533 1532 1532 1531 1531 1532 1532 1532 1531 1531 1531 1530 1530
1512 1513 1515 1519 1530 1535 1530 1524 1522 1521 1521 1521 1524 1526 1529 1533 1535 1536 1537 1537 1538 1538 1538 1538 1537 1537 1537 1536 1535 1535 1534 1534 1533 1533 1533 1533 1533 1532 1532 1532 1531 1532 1532 1531 1531 1531 1530 1530 1530
1512 1514 1516 1525 1530 1527 1523 1521 1520 1520 1521 1522 1523 1529 1532 1535 1536 1536 1536 1537 1537 1538 1537 1537 1537 1537 1536 1536 1535 1534 1533 1531 1531 1532 1532 1532 1532 1532 1532 1532 1531 1531 1531 1531 1531 1530 1530 1530 1530
1512 1513 1521 1530 1528 1524 1521 1520 1520 1521 1522 1523 1524 1529 1533 1535 1535 1536 1536 1537 1537 1537 1537 1537 1536 1536 1536 1535 1535 1534 1532 1530 1530 1531 1532 1532 1532 1531 1531 1531 1531 1531 1531 1530 1530 1530 1529 1529 1529
1512 1514 1528 1533 1528 1523 1521 1520 1521 1521 1523 1524 1525 1529 1533 1535 1535 1535 1536 1536 1536 1537 1536 1536 1536 1535 1535 1535 1534 1533 1532 1531 1531 1531 1531 1531 1531 1531 1531 1530 1530 1530 1530 1529 1529 1529 1529 1528 1528
1513 1518 1526 1527 1527 1524 1521 1520 1521 1522 1523 1525 1526 1529 1533 1534 1535 1535 1536 1536 1536 1536 1536 1536 1535 1535 1534 1534 1533 1533 1532 1532 1531 1531 1531 1530 1530 1530 1529 1529 1529 1528 1528 1528 1528 1528 1528 1527 1527
1511 1518 1523 1526 1525 1523 1520 1520 1522 1522 1524 1526 1526 1528 1531 1533 1534 1535 1536 1536 1536 1536 1535 1535 1535 1534 1534 1533 1532 1532 1531 1531 1530 1530 1530 1529 1529 1529 1528 1528 1528 1527 1527 1527 1527 1526 1526 1526 1526
1512 1521 1526 1523 1522 1521 1519 1520 1522 1523 1524 1525 1526 1528 1530 1531 1533 1534 1534 1535 1535 1535 1535 1534 1534 1534 1533 1532 1532 1531 1531 1530 1530 1529 1529 1528 1528 1528 1527 1527 1526 1526 1525 1525 1525 1525 1524 1524 1524
1512 1523 1521 1518 1517 1518 1519 1520 1522 1524 1524 1526 1527 1528 1529 1530 1531 1532 1532 1533 1533 1533 1533 1533 1533 1533 1532 1531 1531 1530 1530 1529 1528 1528 1527 1527 1527 1526 1526 1525 1525 1524 1524 1524 1523 1523 1523 1522 1522
1513 1518 1517 1516 1516 1517 1518 1521 1522 1523 1525 1525 1525 1526 1528 1529 1530 1531 1532 1532 1532 1532 1532 1532 1532 1531 1531 1530 1530 1529 1528 1528 1527 1526 1526 1525 1525 1525 1524 1523 1523 1523 1523 1522 1521 1521 1521 1520 1520
1514 1516 1516 1516 1516 1517 1518 1520 1522 1523 1524 1524 1525 1526 1527 1528 1529 1530 1531 1531 1531 1531 1531 1531 1531 1530 1529 1529 1528 1527 1527 1526 1525 1525 1524 1524 1523 1523 1522 1522 1521 1521 1521 1520 1519 1519 1518 1518 1518
1514 1516 1516 1516 1516 1517 1519 1520 1521 1523 1523 1524 1524 1526 1526 1527 1528 1529 1530 1530 1530 1530 1530 1529 1529 1528 1528 1527 1527 1526 1525 1524 1523 1523 1522 1522 1521 1521 1520 1520 1519 1519 1519 1518 1517 1517 1516 1516 1516
1515 1516 1517 1517 1517 1518 1519 1521 1522 1522 1522 1523 1523 1524 1525 1526 1527 1527 1528 1528 1528 1528 1528 1528 1527 1526 1526 1525 1525 1524 1523 1522 1522 1521 1520 1520 1519 1519 1519 1518 1517 1517 1516 1516 1515 1514 1514 1513 1513
1515 1517 1518 1517 1517 1518 1520 1523 1521 1520 1521 1522 1522 1523 1524 1524 1525 1526 1526 1526 1527 1526 1526 1526 1525 1525 1524 1523 1523 1522 1522 1521 1520 1519 1519 1518 1518 1517 1517 1516 1515 1515 1514 1513 1512 1512 1511 1510 1510
1516 1521 1523 1519 1517 1518 1522 1524 1520 1519 1520 1520 1521 1521 1522 1522 1523 1524 1524 1524 1524 1524 1524 1523 1523 1523 1522 1522 1521 1520 1520 1519 1518 1518 1517 1516 1516 1515 1515 1514 1513 1512 1512 1511 1510 1509 1508 1508 1507
1521 1525 1524 1521 1517 1517 1520 1521 1518 1518 1518 1518 1519 1519 1520 1520 1521 1521 1521 1522 1522 1522 1521 1521 1521 1520 1520 1520 1519 1518 1517 1517 1516 1516 1515 1514 1514 1513 1512 1512 1511 1510 1509 1509 1508 1507 1506 1505 1504
1523 1523 1522 1522 1518 1518 1520 1519 1517 1517 1517 1517 1517 1517 1517 1517 1518 1518 1519 1519 1519 1519 1519 1519 1518 1518 1518 1517 1517 1516 1515 1515 1514 1513 1513 1512 1511 1511 1510 1509 1509 1508 1507 1506 1505 1505 1504 1503 1502
1517 1519 1521 1519 1516 1518 1519 1518 1516 1515 1515 1515 1515 1515 1514 1515 1516 1516 1516 1516 1516 1516 1516 1516 1515 1515 1515 1514 1514 1513 1512 1512 1512 1511 1510 1510 1509 1509 1508 1507 1506 1505 1505 1504 1503 1502 1501 1500 1500
1516 1519 1520 1519 1516 1517 1519 1517 1514 1513 1512 1512 1511 1511 1511 1512 1512 1513 1513 1514 1513 1513 1513 1513 1513 1512 1512 1512 1512 1511 1510 1510 1509 1509 1508 1507 1507 1506 1506 1504 1504 1503 1502 1501 1501 1500 1498 1498 1498
1517 1519 1519 1520 1518 1518 1520 1519 1514 1511 1510 1510 1509 1509 1509 1509 1509 1510 1511 1511 1510 1510 1510 1510 1510 1510 1510 1510 1509 1509 1508 1507 1507 1506 1505 1505 1504 1503 1503 1502 1501 1500 1499 1498 1498 1497 1496 1496 1496
1517 1515 1516 1518 1522 1526 1524 1527 1516 1511 1509 1507 1506 1506 1506 1506 1507 1508 1508 1508 1508 1508 1508 1508 1508 1508 1507 1507 1506 1505 1504 1504 1503 1503 1503 1502 1501 1501 1500 1499 1498 1498 1497 1496 1495 1495 1495 1494 1493
1516 1514 1516 1518 1522 1527 1526 1529 1517 1512 1508 1505 1503 1503 1503 1504 1504 1505 1505 1506 1506 1506 1505 1505 1505 1505 1505 1504 1504 1503 1503 1502 1501 1501 1500 1499 1498 1498 1497 1496 1495 1495 1494 1493 1493 1492 1492 1492 1491
1515 1517 1520 1525 1528 1530 1524 1528 1518 1511 1504 1501 1500 1500 1500 1501 1502 1502 1503 1504 1503 1503 1503 1503 1503 1503 1502 1502 1501 1501 1500 1499 1498 1498 1497 1496 1495 1495 1494 1493 1492 1491 1491 1490 1490 1489 1489 1489 1489
1517 1524 1534 1534 1538 1531 1523 1523 1514 1502 1499 1499 1498 1498 1498 1499 1499 1500 1500 1500 1500 1501 1500 1500 1500 1500 1499 1499 1498 1498 1497 1497 1496 1495 1494 1493 1492 1491 1491 1490 1489 1488 1488 1487 1487 1486 1486 1486 1486
1518 1521 1531 1535 1537 1530 1523 1520 1507 1499 1497 1496 1496 1496 1497 1497 1497 1498 1498 1498 1498 1498 1498 1498 1497 1497 1497 1496 1495 1495 1494 1494 1493 1492 1492 1490 1489 1489 1488 1487 1486 1485 1485 1484 1484 1483 1483 1483 1483
1518 1522 1522 1531 1535 1534 1524 1517 1505 1498 1497 1496 1496 1495 1495 1495 1496 1496 1496 1496 1496 1496 1495 1495 1495 1494 1494 1493 1492 1492 1491 1490 1490 1489 1489 1488 1487 1486 1485 1484 1484 1483 1482 1481 1481 1480 1480 1480 1480
1515 1518 1527 1531 1532 1530 1522 1518 1509 1500 1498 1496 1496 1495 1495 1495 1494 1494 1494 1494 1493 1493 1493 1493 1492 1492 1491 1490 1490 1489 1488 1487 1487 1486 1485 1485 1484 1483 1482 1482 1481 1480 1479 1479 1478 1478 1477 1477 1477
1517 1519 1521 1528 1529 1529 1528 1514 1500 1499 1497 1496 1495 1494 1494 1494 1493 1493 1492 1492 1492 1491 1490 1490 1489 1489 1488 1487 1487 1486 1485 1484 1484 1483 1482 1482 1481 1480 1479 1479 1478 1477 1477 1476 1476 1475 1475 1474 1474
1514 1515 1520 1525 1527 1528 1527 1514 1497 1497 1496 1496 1495 1494 1494 1493 1492 1492 1491 1490 1489 1489 1488 1487 1486 1486 1485 1484 1484 1483 1482 1481 1481 1480 1479 1479 1478 1477 1477 1476 1475 1474 1474 1473 1473 1472 1472 1471 1470